User: anonymous   Login
Location: Houston
(29.7630°N, 95.3630°W)
Time: 03:33:47
(UTC-05:00)
Language:

Saudisat 1A - Orbit

View from above orbital plane
View from above orbital plane
View from above satellite
View from above satellite

Ground track
Ground track

The orbit data is extracted from the following two-line orbital elements,

1 26546U 00057B   17266.84887403  .00000179  00000-0  34259-4 0  9993
2 26546  64.5559  26.4825 0019687 218.3367 141.6344 14.90590439921365
Epoch (UTC): 23 September 2017 20:22:22
Eccentricity: 0.0019687
inclination: 64.5559°
perigee height: 582 km
apogee height: 610 km
right ascension of ascending node: 26.4825°
argument of perigee: 218.3367°
revolutions per day: 14.90590439
mean anomaly at epoch: 141.6344°
orbit number at epoch: 92136

The dashed part of the orbit path shows where the satellite is in the earth's shadow,  

DLR